Regional Weather Roundup
Issued by NWS Wakefield, VA

Home | Current Version | Previous Version | Text Only | Print | Product List | Glossary On
Versions: 1 2 3 4 5 6 7 8 9 10 11 12 13 14 15 16 17 18 19 20 21 22 23 24 25 26 27 28 29 30 31 32 33 34 35 36 37 38 39 40 41 42 43 44 45 46 47 48 49 50
000
ASUS41 KAKQ 181415
RWRAKQ

REGIONAL WEATHER ROUNDUP
NATIONAL WEATHER SERVICE WAKEFIELD VA
900 AM EST THU JAN 18 2018

Note: "fair" indicates few or no clouds below 12,000 feet with no
significant weather and/or obstructions to visibility. * = Denotes
station may not report precipitation (e.g., rain,snow,etc.),
thunder or fog.

VAZ042-051-052>054-056-181500-
NORTHERN VIRGINIA

CITY           SKY/WX    TMP DP  RH WIND       PRES   REMARKS
WASH NATIONAL  FAIR      25   6  44 NW10      30.20F WCI  15
DULLES         FAIR      25   5  42 NW12      30.18F WCI  14
FORT BELVOIR   FAIR      27   4  37 W6        30.20S
QUANTICO       NOT AVBL
FREDERICKSBRG* FAIR      23  11  61 W3        30.20F
STAFFORD*      FAIR      20  11  69 CALM      30.24F
WARRENTON      FAIR      20   7  56 CALM      30.18F
CULPEPER*      FAIR      19   8  61 CALM      30.19F
MANASSAS*      FAIR      26  14  60 VRB3      30.20F
LEESBURG*      FAIR      28  10  47 NW21G32   30.18F WCI  15
WINCHESTER     FAIR      27   1  33 W6        30.18S
FRONT ROYAL*   FAIR      21   5  49 MISG      30.16F
LURAY*         FAIR      19  10  68 SW9       30.18S
$$

VAZ048-049-060>072-079>083-181500-
CENTRAL AND SOUTH CENTRAL VIRGINIA

CITY           SKY/WX    TMP DP  RH WIND       PRES   REMARKS
RICHMOND       FAIR      21   9  59 W6        30.21S
CHESTERFIELD*  NOT AVBL
PETERSBURG*    FAIR      18   9  68 N6        30.23S
HANOVER        FAIR      20   6  55 W6        30.21F
TAPPAHANNOCK*  FAIR      22   9  58 W3        30.21S
QUINTON*       FAIR      20   8  59 CALM      30.22R
CHARLOTTSVILLE FAIR      26   3  37 SW3       30.17F
GORDONSVILLE*  FAIR      22   7  54 SW5       30.17F
ORANGE*        FAIR      16   9  73 CALM      30.17F
LOUISA*        FAIR      20   4  50 W5        30.22S
BUMPASS*       FAIR      19   5  56 CALM      30.18F
FARMVILLE*     FAIR      17  11  77 SW5       30.21F
CREWE*         FAIR      19   7  59 W6        30.21S
FORT PICKETT*  FAIR      17   6  64 W8        30.21S
CHASE CITY*    FAIR      17   8  69 W6        30.25S
CLARKSVILLE*   FAIR      18   9  68 W5        30.26S
SOUTH HILL*    FAIR      16  10  74 W6        30.29S
LAWRENCEVILLE* FAIR      17   9  70 CALM      30.24R
EMPORIA*       FAIR      18  10  73 W5        30.26S
$$

VAZ088>098-181500-
SOUTHEAST VIRGINIA

CITY           SKY/WX    TMP DP  RH WIND       PRES   REMARKS
NORFOLK        FAIR      25  10  53 NW14      30.20R WCI  13
VIRGINIA BEACH FAIR      30  12  47 NW15G28   30.18R WCI  19
NORFOLK NAVAL  FAIR      23  10  57 NW15      30.22R WCI  10
WEST POINT*    FAIR      22  10  60 NW5       30.24S
SALUDA*        FAIR      21  10  64 W5        30.21S
NEWPORT NEWS   FAIR      21   8  57 NW8       30.22S
LANGLEY AFB    SUNNY     21   8  56 NW9       30.20S
FORT EUSTIS    FAIR      22   8  55 NW10      30.20S WCI  11
WILLIAMSBURG*  FAIR      19  12  73 NW6       30.24R
HR EXEC AP*    FAIR      24  12  60 NW8G16    30.23R
FRANKLIN*      FAIR      19   9  63 W7        30.25S
US460-WAKEFLD  NOT AVBL
$$

VAZ020-022-025-037-045-181500-
WEST CENTRAL AND SOUTHWEST VIRGINIA

CITY           SKY/WX    TMP DP  RH WIND       PRES   REMARKS
STAUNTON*      FAIR      15   6  69 CALM      30.20S
WAYNESBORO*    FAIR      20   1  42 SW14      30.17S WCI   7
HOT SPRINGS VA FAIR       8  -1  65 W25G31    30.06S WCI -13
LYNCHBURG      FAIR      20   3  48 SW3       30.22R
DANVILLE       FAIR      13   7  77 SW7       30.29R
SOUTH BOSTON*  FAIR      14   6  69 SW3       30.28S
MARTINSVILLE   FAIR      23   1  39 NW15      30.28F WCI  10
ROANOKE        FAIR      20   4  50 W16       30.29S WCI   6
BLACKSBURG     FAIR      13   4  67 W8        30.29S
DUBLIN*        FAIR      17   4  58 W15G21    30.30S WCI   2
MARION*        CLOUDY     8   3  80 W14G25    30.33R WCI  -8
HILLSVILLE*    FAIR      10   1  66 NW14      30.22R WCI  -6
RICHLANDS*     FAIR       8   4  86 SW7       30.34R
WISE*          FAIR       9   5  85 SW3       30.34S
ABINGDON*      PTSUNNY   10   7  87 W8        30.42R
$$

MDZ021>025-VAZ099-100-181500-
SOUTHERN MARYLAND AND THE DELMARVA PENINSULA

CITY           SKY/WX    TMP DP  RH WIND       PRES   REMARKS
PATUXENT RIVER MOSUNNY   24   9  52 NW18      30.19R WCI  10
BAY BRIDGE APT FAIR      23   7  50 MISG      30.18S
LEONARDTOWN    FAIR      23   9  54 W10G20    30.19S WCI  12
DOVER          MOSUNNY   22  12  65 W6        30.17R
GEORGETOWN     FAIR      21   8  57 VRB5      30.16F
EASTON         MOSUNNY   25   9  50 NW12      30.21R WCI  14
CAMBRIDGE      SUNNY     25   9  50 NW9G16    30.19R
SALISBURY      FAIR      23  10  57 NW15G21   30.16F WCI  10
OCEAN CITY     FAIR      23  10  57 NW13      30.14  WCI  11
WALLOPS ISLAND FAIR      24  12  60 NW14      30.16S WCI  12
ACCOMACK*      FAIR      26  15  63 NW17G23   30.17S WCI  12
$$

NCZ012>017-030>032-181500-
NORTH CENTRAL AND EASTERN NORTH CAROLINA

CITY           SKY/WX    TMP DP  RH WIND       PRES   REMARKS
ROANOKE RAPIDS FAIR      21  12  68 NW5       30.26R
RALEIGH        FAIR      15   9  76 VRB5      30.29S
ELIZABETH CITY FAIR      21  12  68 W17       30.20R WCI   7
AHOSKIE*       FAIR      19  11  72 CALM      30.26S
EDENTON*       FAIR      24  15  67 NW8G16    30.24R
CURRITUCK*     FAIR      22  13  66 W8        30.19R
KILL DEVIL HLS FAIR      24  16  73 NW8G17    30.15R
MANTEO         FAIR      24  15  69 N14       30.18R WCI  12
CAPE HATTERAS  PTSUNNY   26  20  77 NW16G26   30.17R WCI  14
TARBORO*       NOT AVBL
GOLDSBORO      FAIR      22  10  58 NW9       30.28S
WASHINGTON     FAIR      23  14  69 W8        30.27R
GREENVILLE     FAIR      23  12  63 NW8       30.29R
NEW BERN       FAIR      24  15  68 N12       30.27R WCI  13
WILMINGTON     FAIR      24  14  65 NW16      30.31R WCI  11
$$

VAZ048-181500-
ELSEWHERE

CITY           SKY/WX    TMP DP  RH WIND       PRES   REMARKS
HARRISBURG PA  FAIR      20   7  57 CALM      30.12F
BALTIMORE      FAIR      23   8  52 W8        30.16S
ANNAPOLIS        N/A     25   9  50 NW6       30.17S
ANDREWS AFB    FAIR      22   6  48 NW16      30.16S WCI   9
PHILADELPHIA   FAIR      23   5  46 NW9       30.13S
HENDERSON NC   FAIR      17   5  58 NW7       30.26R
GREENSBORO     FAIR      16   6  65 NW5       30.27S
ROCKY MOUNT    FAIR      19  11  70 W9        30.28R
$$

VAZ100-181500-
MARINE

STATION/POSITION TIME  TEMP    WIND        PRES    WAVE   SWELL
                       AIR SEA DIR/SP/G            HT/PER HT/PER
                 (UTC) (F)     (DEG/KT/KT) (MB)    (FT/S) (FT/S)
BRANDYWINE LGT   1348   22     340/ 19/ 23 1021.0F
CAPE MAY NJ      1348   24 32  340/ 18/ 25 1020.7R
LEWES DE         1348   22 32  320/ 16/ 20 1020.9F
15NM E FENWICK I 1350   27 41  320/ 29/ 33 1018.5F   7/ 6   2/10
OCEAN-CITY-INLET 1348   23 35  350/ 17/ 23 1020.9F
WACHAPREAGUE VA  1348   26 32  300/  6/ 12 1021.3F
THOMAS POINT MD  1400   23 31  310/  9/ 10   N/A
GOOSES REEF MD   1400   24 32  350/ 17/ 21 1022.6    2/ 3
COVE POINT MD    1348   22     340/ 17/ 21 1022.9R
SOLOMONS ISLAND  1348   23 33  330/ 15/ 22 1022.1R
BISHOPS HEAD MD  1348   24 30  320/ 14/ 17 1022.5R
PINEY POINT MD   1348          340/ 15/ 18   N/A
POTOMAC MD       1350   24     110/ 14/ 17 1021.9R
CAMBRIDGE MD     1348   24 31              1022.7R
LEWISETTA VA     1348   24 31  340/ 11/ 15 1022.8R
RAPPAHANNOCK LGT 1348          320/ 28/ 33 1022.6F
STINGRAY PT      1400   24 33  340/ 12/ 16 1025.3    2/ 3
YORK RVR RNG VA  1348   22     320/ 14/ 17 1023.6R
YORKTOWN VA      1348   21 34  300/ 12/ 13 1023.2R
DOMINION TERM VA 1348   24     320/ 16/ 20 1023.2R
KIPTOPEKE VA     1348      33  340/ 23/ 27   N/A
CAPE HENRY VA    1348   25     320/ 24/ 27   N/A
WILLOUBY STN VA  1348          310/ 16/ 18 1022.9R
S CRANEY ISL VA  1348   23     330/ 12/ 17 1022.8R
CAPE HENRY BUOY  1400      40                N/A     6/ 7   2/11
1ST LANDING BUOY 1400   25 35  340/ 16/ 19 1022.3    3/ 4
CAPE CHARLES BUO 1351      38                N/A     5/11   2/11
64NM E OF VA BCH 1350   34 55  330/ 29/ 35 1018.0R  11/ 8
DUCK PIER NC     1348   24 38  320/ 19/ 21 1020.8R
44100 DUCK FRF   1345      43                N/A     9/ 8   2/11
44056 DUCK FRF   1400      40                N/A     7/ 8   2/11
OREGON INLET NC  1342   25 37  310/ 19/ 24 1020.9R
HATTERAS NC      1348   26 40  320/ 24/ 28 1021.3R
DIAMOND SHLS NC  1400   30 54  310/ 25/ 31 1020.8
CAPE LOOKOUT NC  1400          330/ 19/ 22 1023.5R
$$



USA.gov is the U.S. government's official web portal to all federal, state and local government web resources and services.